Farmington, MO

8:27 AM CST on December 11, 2019 (GMT -0600)
Farmington Regional

Weather History for KFAM - October, 2019

Change the Weather History Date:

Thursday, October 31, 2019

  Actual Average Record
Temperature  
Mean Temperature 32 °F -  
Max Temperature 39 °F 60 °F 78 °F (1999)
Min Temperature 24 °F 42 °F 24 °F (2019)
Degree Days  
Heating Degree Days 33    
Moisture  
Dew Point 26 °F    
Average Humidity 81    
Maximum Humidity 93    
Minimum Humidity 53    
Precipitation  
Precipitation 0.00 in - - ()
Sea Level Pressure  
Sea Level Pressure 30.18 in    
Wind  
Wind Speed 12 mph (WNW)    
Max Wind Speed 18 mph    
Max Gust Speed 29 mph    
Visibility 10 miles    
Events      
Averages and records for this station are not official NWS values.
T = Trace of Precipitation, MM = Missing Value Source: NWS Daily Summary

Daily Weather History Graph

Daily Weather History Graph

Search for Another Location

Airport or City:

Astronomy

Oct. 31, 2019 Rise Set
Actual Time 7:25 AM CDT 6:04 PM CDT
Civil Twilight 6:58 AM CDT 6:31 PM CDT
Nautical Twilight 6:27 AM CDT 7:02 PM CDT
Astronomical Twilight 5:57 AM CDT 7:32 PM CDT
Moon 11:11 AM CDT (10/31) 9:04 PM CDT (10/31)
Length of Visible Light 11h 32m
Length of Day
10h 38m
Waxing Crescent, 16% of the Moon is Illuminated
Oct 31
Waxing Crescent
Nov 4
First Quarter
Nov 12
Full
Nov 19
Last Quarter
Nov 26
New

Hourly Weather History & Observations

Time (CDT) Temp. Windchill Dew Point Humidity Pressure Visibility Wind Dir Wind Speed Gust Speed Precip Events Conditions
2:47 AM 33.8 °F 23.9 °F 32.0 °F 93% 29.98 in 10.0 mi NW 15.0 mph 24.2 mph 0.00 in   Overcast
2:56 AM 33.1 °F 23.4 °F 30.9 °F 92% 30.03 in 10.0 mi NW 13.8 mph 24.2 mph 0.00 in   Overcast
3:11 AM 33.8 °F 25.8 °F 30.2 °F 87% 29.98 in 10.0 mi NW 10.4 mph 21.9 mph N/A   Overcast
3:56 AM 33.1 °F 23.9 °F 30.9 °F 92% 30.03 in 9.0 mi NW 12.7 mph 20.7 mph N/A   Overcast
4:56 AM 33.1 °F 23.9 °F 30.0 °F 89% 30.03 in 10.0 mi NW 12.7 mph - N/A   Overcast
5:56 AM 32.0 °F 21.2 °F 28.9 °F 88% 30.05 in 10.0 mi NW 16.1 mph 24.2 mph N/A   Overcast
6:21 AM 32.0 °F 21.6 °F 28.4 °F 87% 30.01 in 10.0 mi WNW 15.0 mph 24.2 mph N/A   Overcast
6:53 AM 32.0 °F 23.6 °F 28.4 °F 87% 30.01 in 10.0 mi NW 10.4 mph 24.2 mph N/A   Overcast
7:56 AM 30.9 °F 21.2 °F 28.9 °F 92% 30.09 in 10.0 mi WNW 12.7 mph 21.9 mph N/A   Overcast
8:56 AM 30.9 °F 19.1 °F 27.0 °F 85% 30.14 in 10.0 mi WNW 18.4 mph 28.8 mph N/A   Overcast
9:56 AM 30.9 °F 19.8 °F 26.1 °F 82% 30.16 in 10.0 mi WNW 16.1 mph 25.3 mph N/A   Overcast
10:56 AM 30.9 °F 19.8 °F 26.1 °F 82% 30.17 in 10.0 mi WNW 16.1 mph 23.0 mph N/A   Overcast
11:56 AM 30.9 °F 20.2 °F 26.1 °F 82% 30.20 in 10.0 mi NW 15.0 mph 23.0 mph N/A   Overcast
12:56 PM 32.0 °F 21.6 °F 26.1 °F 79% 30.22 in 10.0 mi WNW 15.0 mph 20.7 mph N/A   Overcast
2:56 PM 36.0 °F 26.7 °F 23.0 °F 59% 30.24 in 10.0 mi WNW 15.0 mph 23.0 mph N/A   Mostly Cloudy
3:56 PM 37.9 °F 31.5 °F 24.1 °F 57% 30.24 in 10.0 mi WNW 9.2 mph 16.1 mph N/A   Mostly Cloudy
4:56 PM 39.0 °F 32.3 °F 23.0 °F 53% 30.27 in 10.0 mi West 10.4 mph - N/A   Clear
5:56 PM 37.0 °F 31.0 °F 23.0 °F 57% 30.28 in 10.0 mi West 8.1 mph - N/A   Clear
6:56 PM 34.0 °F - 23.0 °F 64% 30.32 in 10.0 mi Calm Calm - N/A   Clear
7:56 PM 30.9 °F - 25.0 °F 79% 30.35 in 10.0 mi Calm Calm - N/A   Clear
8:56 PM 28.9 °F - 25.0 °F 85% 30.36 in 10.0 mi Calm Calm - N/A   Clear
9:56 PM 27.0 °F 23.0 °F 25.0 °F 92% 30.35 in 10.0 mi SW 3.5 mph - N/A   Clear
10:56 PM 25.0 °F - 23.0 °F 92% 30.36 in 10.0 mi Calm Calm - N/A   Clear
11:56 PM 24.1 °F - 21.9 °F 91% 30.36 in 10.0 mi Calm Calm - N/A   Clear